| time (UTC) | temp C | wind direction | speed KPH | gust KPH | rain 1hr cm | rain 24hr cm | rain mn cm | humidity % | barometer mb |
| 20260506195414 | 7 | 239 | 9.7 | 14.5 | 0.08 | 1.09 | 1.09 | 100 | 1011.0 |
| 20260506194914 | 7 | 237 | 4.8 | 12.9 | 0.05 | 1.07 | 1.07 | 100 | 1011.0 |
| 20260506194414 | 7 | 257 | 11.3 | 16.1 | 0.05 | 1.07 | 1.07 | 100 | 1010.9 |
| 20260506193914 | 7 | 180 | 11.3 | 14.5 | 0.05 | 1.07 | 1.07 | 100 | 1010.9 |
| 20260506193414 | 7 | 246 | 4.8 | 14.5 | 0.05 | 1.07 | 1.07 | 100 | 1010.9 |
| 20260506192914 | 7 | 240 | 11.3 | 19.3 | 0.03 | 1.04 | 1.04 | 100 | 1010.7 |
| 20260506192414 | 7 | 261 | 9.7 | 16.1 | 0.03 | 1.04 | 1.04 | 100 | 1010.7 |
| 20260506191914 | 7 | 236 | 9.7 | 16.1 | 0.03 | 1.04 | 1.04 | 100 | 1010.7 |
| 20260506191418 | 7 | 217 | 9.7 | 16.1 | 0.03 | 1.02 | 1.02 | 100 | 1010.6 |
| 20260506191414 | 7 | 217 | 9.7 | 16.1 | 0.03 | 1.02 | 1.02 | 100 | 1010.6 |
| 20260506190914 | 7 | 241 | 8.0 | 16.1 | 0.05 | 1.02 | 1.02 | 100 | 1010.5 |
| 20260506190414 | 7 | 170 | 3.2 | 12.9 | 0.05 | 1.02 | 1.02 | 100 | 1010.4 |
| 20260506185918 | 7 | 254 | 11.3 | 12.9 | 0.08 | 1.02 | 1.02 | 100 | 1010.4 |
| 20260506185914 | 7 | 254 | 11.3 | 12.9 | 0.08 | 1.02 | 1.02 | 100 | 1010.4 |
| 20260506185414 | 7 | 258 | 9.7 | 16.1 | 0.08 | 1.02 | 1.02 | 100 | 1010.0 |
| 20260506184914 | 7 | 255 | 11.3 | 14.5 | 0.08 | 1.02 | 1.02 | 100 | 1010.2 |
| 20260506184418 | 7 | 222 | 11.3 | 17.7 | 0.10 | 1.02 | 1.02 | 100 | 1010.2 |
| 20260506184414 | 7 | 222 | 11.3 | 17.7 | 0.10 | 1.02 | 1.02 | 100 | 1010.2 |
| 20260506183914 | 7 | 210 | 9.7 | 16.1 | 0.13 | 1.02 | 1.02 | 100 | 1010.2 |
| 20260506183414 | 8 | 230 | 4.8 | 14.5 | 0.13 | 1.02 | 1.02 | 100 | 1009.9 |
| 20260506182914 | 8 | 251 | 11.3 | 16.1 | 0.15 | 1.02 | 1.02 | 100 | 1010.1 |
| 20260506182414 | 8 | 241 | 9.7 | 19.3 | 0.15 | 1.02 | 1.02 | 100 | 1010.1 |
| 20260506181914 | 8 | 223 | 4.8 | 20.9 | 0.15 | 1.02 | 1.02 | 100 | 1010.0 |
| 20260506181418 | 8 | 241 | 11.3 | 25.7 | 0.13 | 0.99 | 0.99 | 100 | 1010.0 |
| 20260506181414 | 8 | 241 | 11.3 | 25.7 | 0.13 | 0.99 | 0.99 | 100 | 1010.0 |
| 20260506180914 | 8 | 226 | 14.5 | 17.7 | 0.10 | 0.97 | 0.97 | 100 | 1009.9 |
| 20260506180414 | 8 | 206 | 14.5 | 22.5 | 0.10 | 0.97 | 0.97 | 100 | 1009.8 |
| 20260506175919 | 8 | 257 | 22.5 | 22.5 | 0.08 | 0.94 | 0.94 | 100 | 1009.6 |
| 20260506175914 | 8 | 257 | 22.5 | 22.5 | 0.08 | 0.94 | 0.94 | 100 | 1009.6 |
| 20260506175414 | 8 | 192 | 0.0 | 22.5 | 0.08 | 0.94 | 0.94 | 100 | 1009.6 |
| 20260506174914 | 8 | 250 | 8.0 | 20.9 | 0.08 | 0.94 | 0.94 | 99 | 1009.6 |
| 20260506174419 | 9 | 265 | 9.7 | 35.4 | 0.05 | 0.91 | 0.91 | 98 | 1009.4 |
| 20260506174414 | 9 | 265 | 9.7 | 35.4 | 0.05 | 0.91 | 0.91 | 98 | 1009.4 |
| 20260506173914 | 9 | 226 | 11.3 | 16.1 | 0.03 | 0.89 | 0.89 | 98 | 1009.3 |
| 20260506173414 | 9 | 198 | 9.7 | 14.5 | 0.03 | 0.89 | 0.89 | 98 | 1009.2 |
| 20260506172918 | 9 | 163 | 4.8 | 16.1 | 0.03 | 0.86 | 0.86 | 98 | 1009.1 |
| 20260506172914 | 9 | 163 | 4.8 | 16.1 | 0.03 | 0.86 | 0.86 | 98 | 1009.1 |
| 20260506172414 | 9 | 265 | 8.0 | 12.9 | 0.03 | 0.86 | 0.86 | 98 | 1009.1 |
| 20260506171914 | 9 | 130 | 0.0 | 17.7 | 0.03 | 0.86 | 0.86 | 97 | 1009.1 |
| 20260506171417 | 9 | 246 | 6.4 | 14.5 | 0.03 | 0.86 | 0.86 | 97 | 1009.0 |
| 20260506171414 | 9 | 246 | 6.4 | 14.5 | 0.03 | 0.86 | 0.86 | 97 | 1009.0 |
| 20260506170914 | 9 | 232 | 11.3 | 16.1 | 0.03 | 0.86 | 0.86 | 97 | 1009.0 |
| 20260506170414 | 9 | 222 | 14.5 | 17.7 | 0.03 | 0.86 | 0.86 | 97 | 1008.9 |
| 20260506165914 | 9 | 247 | 16.1 | 17.7 | 0.03 | 0.86 | 0.86 | 97 | 1008.9 |
| 20260506165414 | 9 | 258 | 9.7 | 19.3 | 0.05 | 0.86 | 0.86 | 97 | 1008.9 |
| 20260506164914 | 9 | 233 | 14.5 | 20.9 | 0.05 | 0.86 | 0.86 | 97 | 1009.0 |
| 20260506164414 | 9 | 208 | 12.9 | 17.7 | 0.05 | 0.86 | 0.86 | 98 | 1009.0 |
| 20260506163914 | 9 | 274 | 11.3 | 17.7 | 0.05 | 0.86 | 0.86 | 98 | 1009.0 |
| 20260506163414 | 9 | 250 | 14.5 | 19.3 | 0.08 | 0.86 | 0.86 | 97 | 1009.0 |
| 20260506162914 | 9 | 172 | 6.4 | 19.3 | 0.05 | 0.84 | 0.84 | 97 | 1009.1 |
| 20260506162414 | 9 | 229 | 14.5 | 16.1 | 0.05 | 0.84 | 0.84 | 97 | 1009.1 |
| 20260506161915 | 9 | 234 | 8.0 | 14.5 | 0.08 | 0.84 | 0.84 | 97 | 1009.0 |
| 20260506161417 | 9 | 233 | 11.3 | 14.5 | 0.08 | 0.84 | 0.84 | 97 | 1009.1 |
| 20260506161414 | 9 | 233 | 11.3 | 14.5 | 0.08 | 0.84 | 0.84 | 97 | 1009.1 |
| 20260506160915 | 9 | 195 | 6.4 | 16.1 | 0.08 | 0.84 | 0.84 | 97 | 1009.1 |
| 20260506160414 | 9 | 247 | 8.0 | 17.7 | 0.08 | 0.84 | 0.84 | 97 | 1009.1 |
| 20260506155919 | 9 | 289 | 6.4 | 17.7 | 0.10 | 0.84 | 0.84 | 97 | 1009.0 |
| 20260506155915 | 9 | 289 | 6.4 | 17.7 | 0.10 | 0.84 | 0.84 | 97 | 1009.0 |
| 20260506155415 | 9 | 225 | 6.4 | 17.7 | 0.08 | 0.81 | 0.81 | 97 | 1009.0 |
| 20260506154915 | 9 | 225 | 12.9 | 14.5 | 0.08 | 0.81 | 0.81 | 96 | 1009.0 |
| 20260506154418 | 9 | 261 | 1.6 | 19.3 | 0.08 | 0.81 | 0.81 | 96 | 1009.0 |
| 20260506154415 | 9 | 261 | 1.6 | 19.3 | 0.08 | 0.81 | 0.81 | 96 | 1009.0 |
| 20260506153915 | 9 | 239 | 16.1 | 17.7 | 0.08 | 0.81 | 0.81 | 96 | 1009.0 |
| 20260506153415 | 9 | 258 | 11.3 | 16.1 | 0.05 | 0.79 | 0.79 | 96 | 1009.0 |
| 20260506152915 | 9 | 275 | 9.7 | 17.7 | 0.05 | 0.79 | 0.79 | 95 | 1009.0 |
| 20260506152415 | 9 | 229 | 8.0 | 22.5 | 0.05 | 0.97 | 0.79 | 95 | 1009.0 |
| 20260506151915 | 9 | 217 | 14.5 | 17.7 | 0.03 | 0.94 | 0.76 | 95 | 1008.9 |
| 20260506151419 | 9 | 220 | 9.7 | 19.3 | 0.03 | 0.94 | 0.76 | 95 | 1008.9 |
| 20260506151415 | 9 | 220 | 9.7 | 19.3 | 0.03 | 0.94 | 0.76 | 95 | 1008.9 |
| 20260506150915 | 9 | 191 | 8.0 | 20.9 | 0.03 | 0.94 | 0.76 | 94 | 1008.9 |
| 20260506150415 | 9 | 222 | 6.4 | 27.4 | 0.03 | 0.94 | 0.76 | 93 | 1008.8 |
| 20260506145917 | 9 | 154 | 12.9 | 25.7 | 0.00 | 0.91 | 0.74 | 94 | 1008.8 |
| 20260506145915 | 9 | 154 | 12.9 | 25.7 | 0.00 | 0.91 | 0.74 | 94 | 1008.8 |
| 20260506145415 | 10 | 239 | 11.3 | 29.0 | 0.00 | 0.91 | 0.74 | 95 | 1008.9 |
| 20260506144915 | 10 | 222 | 4.8 | 20.9 | 0.00 | 0.91 | 0.74 | 94 | 1008.8 |
| 20260506144418 | 10 | 260 | 4.8 | 20.9 | 0.00 | 0.91 | 0.74 | 94 | 1008.8 |
| 20260506144415 | 10 | 260 | 4.8 | 20.9 | 0.00 | 0.91 | 0.74 | 94 | 1008.8 |
| 20260506143915 | 10 | 209 | 11.3 | 22.5 | 0.00 | 0.91 | 0.74 | 93 | 1008.8 |
| 20260506143415 | 10 | 261 | 1.6 | 22.5 | 0.00 | 0.91 | 0.74 | 95 | 1008.8 |
| 20260506142915 | 10 | 254 | 12.9 | 25.7 | 0.03 | 0.91 | 0.74 | 94 | 1008.8 |
| 20260506142415 | 10 | 163 | 12.9 | 17.7 | 0.03 | 0.91 | 0.74 | 95 | 1008.8 |
| 20260506141915 | 10 | 209 | 14.5 | 25.7 | 0.03 | 0.91 | 0.74 | 95 | 1008.8 |
| 20260506141417 | 10 | 257 | 12.9 | 22.5 | 0.03 | 0.91 | 0.74 | 95 | 1008.9 |
| 20260506141415 | 10 | 257 | 12.9 | 22.5 | 0.03 | 0.91 | 0.74 | 95 | 1008.9 |
| 20260506140915 | 10 | 247 | 9.7 | 22.5 | 0.03 | 0.91 | 0.74 | 94 | 1008.8 |
| 20260506140415 | 10 | 194 | 11.3 | 27.4 | 0.03 | 0.91 | 0.74 | 94 | 1008.8 |
| 20260506135915 | 10 | 247 | 14.5 | 27.4 | 0.03 | 0.91 | 0.74 | 95 | 1008.7 |
| 20260506135415 | 10 | 239 | 14.5 | 24.1 | 0.03 | 0.91 | 0.74 | 96 | 1008.8 |
| 20260506134915 | 10 | 125 | 12.9 | 24.1 | 0.03 | 0.91 | 0.74 | 97 | 1008.8 |
| 20260506134415 | 10 | 187 | 12.9 | 20.9 | 0.03 | 0.91 | 0.74 | 97 | 1008.8 |
| 20260506133915 | 10 | 227 | 11.3 | 22.5 | 0.03 | 0.91 | 0.74 | 97 | 1008.9 |
| 20260506133415 | 10 | 250 | 8.0 | 20.9 | 0.03 | 0.91 | 0.74 | 96 | 1008.8 |
| 20260506132918 | 10 | 262 | 9.7 | 25.7 | 0.00 | 0.89 | 0.71 | 95 | 1008.9 |
| 20260506132915 | 10 | 262 | 9.7 | 25.7 | 0.00 | 0.89 | 0.71 | 95 | 1008.9 |
| 20260506132415 | 10 | 246 | 16.1 | 24.1 | 0.00 | 0.89 | 0.71 | 95 | 1008.8 |
| 20260506131915 | 10 | 217 | 11.3 | 27.4 | 0.00 | 0.89 | 0.71 | 93 | 1008.7 |
| 20260506131415 | 11 | 230 | 12.9 | 17.7 | 0.00 | 0.89 | 0.71 | 95 | 1008.7 |
| 20260506130915 | 11 | 265 | 9.7 | 19.3 | 0.00 | 0.89 | 0.71 | 95 | 1008.6 |
| 20260506130415 | 10 | 206 | 14.5 | 17.7 | 0.00 | 0.89 | 0.71 | 95 | 1008.6 |
| 20260506125915 | 10 | 219 | 4.8 | 19.3 | 0.00 | 0.89 | 0.71 | 95 | 1008.7 |
| 20260506125415 | 10 | 241 | 14.5 | 19.3 | 0.03 | 0.89 | 0.71 | 95 | 1008.7 |
| 20260506124915 | 10 | 270 | 8.0 | 14.5 | 0.03 | 0.89 | 0.71 | 95 | 1008.6 |
| 20260506124419 | 10 | 268 | 8.0 | 19.3 | 0.05 | 0.89 | 0.71 | 95 | 1008.6 |
| 20260506124415 | 10 | 268 | 8.0 | 19.3 | 0.05 | 0.89 | 0.71 | 95 | 1008.6 |
| 20260506123915 | 10 | 213 | 14.5 | 14.5 | 0.05 | 0.89 | 0.71 | 95 | 1008.7 |
| 20260506123415 | 10 | 254 | 4.8 | 19.3 | 0.08 | 0.89 | 0.71 | 95 | 1008.7 |
| 20260506122918 | 11 | 194 | 11.3 | 16.1 | 0.10 | 1.02 | 0.71 | 97 | 1008.6 |
| 20260506122915 | 11 | 194 | 11.3 | 16.1 | 0.10 | 1.02 | 0.71 | 97 | 1008.6 |
| 20260506122415 | 10 | 240 | 4.8 | 16.1 | 0.10 | 1.02 | 0.71 | 97 | 1008.5 |
| 20260506121915 | 10 | 267 | 12.9 | 14.5 | 0.13 | 1.02 | 0.71 | 98 | 1008.4 |
| 20260506121419 | 10 | 244 | 11.3 | 14.5 | 0.15 | 1.02 | 0.71 | 99 | 1008.5 |
| 20260506121415 | 10 | 244 | 11.3 | 14.5 | 0.15 | 1.02 | 0.71 | 99 | 1008.5 |
| 20260506120915 | 10 | 237 | 8.0 | 14.5 | 0.18 | 1.02 | 0.71 | 100 | 1008.5 |
| 20260506120415 | 10 | 178 | 9.7 | 17.7 | 0.20 | 1.02 | 0.71 | 100 | 1008.5 |
| 20260506115919 | 10 | 237 | 12.9 | 16.1 | 0.23 | 1.02 | 0.71 | 100 | 1008.6 |
| 20260506115915 | 10 | 237 | 12.9 | 16.1 | 0.23 | 1.02 | 0.71 | 100 | 1008.6 |
| 20260506115415 | 10 | 168 | 4.8 | 9.7 | 0.23 | 0.99 | 0.69 | 100 | 1008.7 |
| 20260506114915 | 9 | 243 | 6.4 | 17.7 | 0.25 | 0.99 | 0.69 | 100 | 1008.7 |
| 20260506114419 | 9 | 181 | 11.3 | 16.1 | 0.25 | 0.97 | 0.66 | 100 | 1008.7 |
| 20260506114415 | 9 | 181 | 11.3 | 16.1 | 0.25 | 0.97 | 0.66 | 100 | 1008.7 |
| 20260506113915 | 9 | 220 | 8.0 | 12.9 | 0.28 | 0.97 | 0.66 | 100 | 1008.7 |
| 20260506113415 | 9 | 229 | 11.3 | 14.5 | 0.28 | 0.94 | 0.64 | 100 | 1008.7 |
| 20260506112919 | 9 | 265 | 9.7 | 14.5 | 0.28 | 1.04 | 0.61 | 100 | 1008.7 |
| 20260506112915 | 9 | 265 | 9.7 | 14.5 | 0.28 | 1.04 | 0.61 | 100 | 1008.7 |
| 20260506112415 | 9 | 254 | 6.4 | 12.9 | 0.30 | 1.04 | 0.61 | 100 | 1008.8 |
| 20260506111915 | 9 | 222 | 8.0 | 14.5 | 0.33 | 1.02 | 0.58 | 100 | 1008.8 |
| 20260506111418 | 9 | 262 | 8.0 | 11.3 | 0.33 | 0.99 | 0.56 | 100 | 1008.8 |
| 20260506111415 | 9 | 262 | 8.0 | 11.3 | 0.33 | 0.99 | 0.56 | 100 | 1008.8 |
| 20260506110915 | 9 | 198 | 4.8 | 17.7 | 0.33 | 0.97 | 0.53 | 100 | 1008.8 |
| 20260506110415 | 9 | 243 | 14.5 | 16.1 | 0.36 | 0.94 | 0.51 | 100 | 1008.8 |
| 20260506105915 | 9 | 243 | 14.5 | 19.3 | 0.38 | 0.91 | 0.48 | 100 | 1008.8 |
| 20260506105415 | 9 | 257 | 8.0 | 22.5 | 0.38 | 0.89 | 0.46 | 100 | 1008.8 |
| 20260506104915 | 9 | 213 | 14.5 | 22.5 | 0.38 | 0.86 | 0.43 | 100 | 1008.8 |
| 20260506104419 | 10 | 251 | 19.3 | 19.3 | 0.38 | 0.84 | 0.41 | 100 | 1008.7 |
| 20260506104415 | 10 | 251 | 19.3 | 19.3 | 0.38 | 0.84 | 0.41 | 100 | 1008.7 |
| 20260506103915 | 10 | 232 | 11.3 | 19.3 | 0.36 | 0.81 | 0.38 | 100 | 1008.7 |
| 20260506103415 | 10 | 239 | 14.5 | 22.5 | 0.36 | 0.79 | 0.36 | 100 | 1008.6 |
| 20260506102918 | 10 | 258 | 14.5 | 22.5 | 0.33 | 0.79 | 0.33 | 100 | 1008.5 |
| 20260506102915 | 10 | 258 | 14.5 | 22.5 | 0.33 | 0.79 | 0.33 | 100 | 1008.5 |
| 20260506102415 | 10 | 236 | 12.9 | 20.9 | 0.30 | 0.76 | 0.30 | 100 | 1008.5 |
| 20260506101915 | 10 | 210 | 19.3 | 22.5 | 0.25 | 0.71 | 0.25 | 100 | 1008.4 |
| 20260506101419 | 10 | 217 | 6.4 | 25.7 | 0.23 | 0.69 | 0.23 | 99 | 1008.2 |
| 20260506101415 | 10 | 217 | 6.4 | 25.7 | 0.23 | 0.69 | 0.23 | 99 | 1008.2 |
| 20260506100916 | 10 | 247 | 20.9 | 27.4 | 0.20 | 0.66 | 0.20 | 98 | 1008.2 |
| 20260506100415 | 10 | 201 | 17.7 | 24.1 | 0.15 | 0.61 | 0.15 | 98 | 1008.0 |
| 20260506095918 | 10 | 274 | 6.4 | 19.3 | 0.10 | 0.56 | 0.10 | 97 | 1007.8 |
| 20260506095915 | 10 | 274 | 6.4 | 19.3 | 0.10 | 0.56 | 0.10 | 97 | 1007.8 |
| 20260506095415 | 10 | 240 | 6.4 | 11.3 | 0.08 | 0.53 | 0.08 | 97 | 1007.8 |
| 20260506094915 | 10 | 247 | 6.4 | 16.1 | 0.05 | 0.51 | 0.05 | 97 | 1007.7 |
| 20260506094418 | 11 | 232 | 12.9 | 14.5 | 0.03 | 0.48 | 0.03 | 96 | 1007.7 |
| 20260506094415 | 11 | 232 | 12.9 | 14.5 | 0.03 | 0.48 | 0.03 | 96 | 1007.7 |
| 20260506093915 | 11 | 205 | 6.4 | 11.3 | 0.03 | 0.48 | 0.03 | 95 | 1007.6 |
| 20260506093415 | 11 | 246 | 0.0 | 12.9 | 0.00 | 0.46 | 0.00 | 93 | 1007.5 |
| 20260506092918 | 11 | 265 | 11.3 | 11.3 | 0.00 | 0.46 | 0.00 | 92 | 1007.4 |
| 20260506092915 | 11 | 265 | 11.3 | 11.3 | 0.00 | 0.46 | 0.00 | 92 | 1007.4 |
| 20260506092415 | 11 | 253 | 6.4 | 12.9 | 0.00 | 0.46 | 0.00 | 91 | 1007.4 |
| 20260506091915 | 11 | 244 | 4.8 | 12.9 | 0.00 | 0.46 | 0.00 | 89 | 1007.4 |
| 20260506091419 | 11 | 243 | 3.2 | 11.3 | 0.00 | 0.46 | 0.00 | 88 | 1007.3 |
| 20260506091415 | 11 | 243 | 3.2 | 11.3 | 0.00 | 0.46 | 0.00 | 88 | 1007.3 |
| 20260506090915 | 11 | 255 | 9.7 | 12.9 | 0.00 | 0.46 | 0.00 | 87 | 1007.3 |
| 20260506090415 | 11 | 257 | 6.4 | 14.5 | 0.00 | 0.46 | 0.00 | 86 | 1007.2 |
| 20260506085918 | 11 | 264 | 12.9 | 12.9 | 0.00 | 0.46 | 0.00 | 86 | 1007.2 |
| 20260506085915 | 11 | 264 | 12.9 | 12.9 | 0.00 | 0.46 | 0.00 | 86 | 1007.2 |
| 20260506085415 | 11 | 164 | 1.6 | 12.9 | 0.00 | 0.46 | 0.00 | 86 | 1007.1 |
| 20260506084915 | 11 | 299 | 4.8 | 11.3 | 0.00 | 0.46 | 0.00 | 86 | 1007.0 |
| 20260506084421 | 11 | 262 | 6.4 | 12.9 | 0.00 | 0.46 | 0.00 | 86 | 1006.9 |
| 20260506084415 | 11 | 262 | 6.4 | 12.9 | 0.00 | 0.46 | 0.00 | 86 | 1006.9 |
| 20260506083915 | 11 | 268 | 6.4 | 11.3 | 0.00 | 0.46 | 0.00 | 86 | 1006.9 |
| 20260506083415 | 11 | 243 | 6.4 | 14.5 | 0.00 | 0.46 | 0.00 | 86 | 1006.8 |
| 20260506082920 | 11 | 271 | 8.0 | 12.9 | 0.00 | 0.46 | 0.00 | 86 | 1006.7 |
| 20260506082916 | 11 | 271 | 8.0 | 12.9 | 0.00 | 0.46 | 0.00 | 86 | 1006.7 |
| 20260506082415 | 11 | 253 | 6.4 | 9.7 | 0.00 | 0.46 | 0.00 | 86 | 1006.7 |
| 20260506081915 | 11 | 264 | 4.8 | 9.7 | 0.00 | 0.46 | 0.00 | 86 | 1006.7 |
| 20260506081418 | 11 | 306 | 3.2 | 9.7 | 0.00 | 0.46 | 0.00 | 86 | 1006.6 |
| 20260506081416 | 11 | 306 | 3.2 | 9.7 | 0.00 | 0.46 | 0.00 | 86 | 1006.6 |
| 20260506080916 | 11 | 268 | 8.0 | 9.7 | 0.00 | 0.46 | 0.00 | 86 | 1006.6 |
| 20260506080416 | 11 | 254 | 4.8 | 11.3 | 0.00 | 0.46 | 0.00 | 87 | 1006.6 |
| 20260506073416 | 11 | 234 | 4.8 | 9.7 | 0.00 | 0.46 | 0.00 | 89 | 1006.7 |
| 20260506072919 | 11 | 223 | 6.4 | 9.7 | 0.00 | 0.46 | 0.00 | 90 | 1006.7 |
| 20260506072916 | 11 | 223 | 6.4 | 9.7 | 0.00 | 0.46 | 0.00 | 90 | 1006.7 |
| 20260506072416 | 11 | 241 | 1.6 | 6.4 | 0.00 | 0.46 | 0.00 | 90 | 1006.7 |
| 20260506071916 | 10 | 268 | 3.2 | 9.7 | 0.00 | 0.46 | 0.00 | 90 | 1006.6 |
| 20260506071421 | 10 | 196 | 3.2 | 8.0 | 0.00 | 0.46 | 0.00 | 90 | 1006.7 |
| 20260506071416 | 10 | 196 | 3.2 | 8.0 | 0.00 | 0.46 | 0.00 | 90 | 1006.7 |
| 20260506070916 | 10 | 171 | 0.0 | 9.7 | 0.00 | 0.46 | 0.00 | 91 | 1006.7 |
| 20260506070416 | 10 | 203 | 1.6 | 6.4 | 0.00 | 0.46 | 0.00 | 91 | 1006.7 |
| 20260506062416 | 10 | 257 | 0.0 | 8.0 | 0.00 | 0.48 | 0.00 | 91 | 1006.8 |
| 20260506061916 | 10 | 289 | 6.4 | 6.4 | 0.00 | 0.48 | 0.00 | 91 | 1006.7 |
| 20260506061420 | 10 | 181 | 0.0 | 6.4 | 0.00 | 0.48 | 0.00 | 90 | 1006.8 |
| 20260506061416 | 10 | 181 | 0.0 | 6.4 | 0.00 | 0.48 | 0.00 | 90 | 1006.8 |
| 20260506060916 | 10 | 298 | 0.0 | 6.4 | 0.00 | 0.48 | 0.00 | 90 | 1006.7 |
| 20260506060416 | 10 | 255 | 4.8 | 8.0 | 0.00 | 0.48 | 0.00 | 90 | 1006.7 |
| 20260506051416 | 10 | 254 | 4.8 | 8.0 | 0.00 | 0.48 | 0.00 | 89 | 1006.7 |
| 20260506050916 | 10 | 265 | 4.8 | 8.0 | 0.00 | 0.48 | 0.00 | 89 | 1006.8 |
| 20260506050416 | 10 | 254 | 4.8 | 9.7 | 0.00 | 0.48 | 0.00 | 89 | 1006.7 |
| 20260506044916 | 10 | 237 | 4.8 | 4.8 | 0.00 | 0.48 | 0.00 | 91 | 1006.7 |
| 20260506044420 | 10 | 239 | 1.6 | 1.6 | 0.00 | 0.48 | 0.00 | 92 | 1006.7 |
| 20260506044416 | 10 | 239 | 1.6 | 1.6 | 0.00 | 0.48 | 0.00 | 92 | 1006.7 |
| 20260506043916 | 10 | 222 | 0.0 | 1.6 | 0.00 | 0.48 | 0.00 | 92 | 1006.7 |
| 20260506043416 | 10 | 215 | 0.0 | 6.4 | 0.00 | 0.48 | 0.00 | 92 | 1006.6 |
| 20260506042919 | 10 | 261 | 4.8 | 4.8 | 0.00 | 0.53 | 0.00 | 92 | 1006.6 |
| 20260506042916 | 10 | 261 | 4.8 | 4.8 | 0.00 | 0.53 | 0.00 | 92 | 1006.6 |
| 20260506042416 | 10 | 146 | 0.0 | 0.0 | 0.00 | 0.53 | 0.00 | 93 | 1006.6 |
| 20260506041916 | 10 | 146 | 0.0 | 0.0 | 0.00 | 0.53 | 0.00 | 93 | 1006.6 |
| 20260506041420 | 10 | 146 | 0.0 | 0.0 | 0.00 | 0.53 | 0.00 | 93 | 1006.6 |
| 20260506041416 | 10 | 146 | 0.0 | 0.0 | 0.00 | 0.53 | 0.00 | 93 | 1006.6 |
| 20260506040916 | 10 | 146 | 0.0 | 4.8 | 0.00 | 0.53 | 0.00 | 94 | 1006.6 |
| 20260506040416 | 10 | 260 | 0.0 | 8.0 | 0.00 | 0.53 | 0.00 | 94 | 1006.6 |
| 20260506035919 | 10 | 277 | 0.0 | 0.0 | 0.00 | 0.53 | 0.00 | 95 | 1006.6 |
| 20260506035916 | 10 | 277 | 0.0 | 0.0 | 0.00 | 0.53 | 0.00 | 95 | 1006.6 |
| 20260506035416 | 10 | 277 | 0.0 | 3.2 | 0.00 | 0.53 | 0.00 | 95 | 1006.7 |
| 20260506034916 | 10 | 255 | 0.0 | 6.4 | 0.00 | 0.53 | 0.00 | 95 | 1006.7 |
| 20260506034416 | 10 | 222 | 3.2 | 6.4 | 0.00 | 0.53 | 0.00 | 95 | 1006.8 |
| 20260506033916 | 10 | 233 | 3.2 | 3.2 | 0.00 | 0.53 | 0.00 | 95 | 1007.0 |
| 20260506033416 | 10 | 180 | 0.0 | 8.0 | 0.00 | 0.53 | 0.00 | 95 | 1007.0 |
| 20260506032916 | 10 | 202 | 0.0 | 6.4 | 0.00 | 0.61 | 0.00 | 95 | 1007.1 |
| 20260506032416 | 10 | 223 | 1.6 | 11.3 | 0.00 | 0.61 | 0.00 | 95 | 1007.0 |
| 20260506031916 | 10 | 285 | 4.8 | 12.9 | 0.00 | 0.61 | 0.00 | 95 | 1007.0 |
| 20260506031416 | 9 | 254 | 8.0 | 12.9 | 0.00 | 0.61 | 0.00 | 95 | 1007.1 |
| 20260506030916 | 9 | 177 | 0.0 | 9.7 | 0.00 | 0.61 | 0.00 | 95 | 1007.2 |
| 20260506030417 | 9 | 216 | 6.4 | 9.7 | 0.00 | 0.61 | 0.00 | 95 | 1007.2 |
| 20260506025916 | 9 | 247 | 6.4 | 11.3 | 0.00 | 0.61 | 0.00 | 95 | 1007.2 |
| 20260506025416 | 9 | 254 | 6.4 | 11.3 | 0.00 | 0.61 | 0.00 | 95 | 1007.3 |
| 20260506024916 | 9 | 164 | 1.6 | 11.3 | 0.00 | 0.61 | 0.00 | 95 | 1007.3 |
| 20260506024416 | 10 | 230 | 8.0 | 8.0 | 0.00 | 0.61 | 0.00 | 95 | 1007.3 |
| 20260506023916 | 10 | 194 | 4.8 | 12.9 | 0.00 | 0.61 | 0.00 | 94 | 1007.3 |
| 20260506023416 | 10 | 196 | 9.7 | 14.5 | 0.00 | 0.61 | 0.00 | 94 | 1007.4 |
| 20260506022916 | 10 | 205 | 8.0 | 12.9 | 0.00 | 0.61 | 0.00 | 94 | 1007.4 |
| 20260506022416 | 10 | 267 | 11.3 | 16.1 | 0.00 | 0.61 | 0.00 | 94 | 1007.4 |
| 20260506021916 | 10 | 260 | 8.0 | 12.9 | 0.00 | 0.61 | 0.00 | 94 | 1007.4 |
| 20260506021416 | 10 | 225 | 6.4 | 12.9 | 0.00 | 0.61 | 0.00 | 94 | 1007.5 |
| 20260506020916 | 10 | 196 | 0.0 | 9.7 | 0.00 | 0.61 | 0.00 | 94 | 1007.5 |
| 20260506020416 | 10 | 243 | 4.8 | 4.8 | 0.00 | 0.61 | 0.00 | 93 | 1007.4 |
| 20260506015916 | 10 | 234 | 0.0 | 9.7 | 0.00 | 0.61 | 0.00 | 93 | 1007.4 |
| 20260506015416 | 10 | 230 | 9.7 | 11.3 | 0.00 | 0.61 | 0.00 | 93 | 1007.6 |
| 20260506014916 | 10 | 278 | 0.0 | 8.0 | 0.00 | 0.61 | 0.00 | 93 | 1007.6 |
| 20260506014416 | 10 | 241 | 4.8 | 9.7 | 0.00 | 0.61 | 0.00 | 93 | 1007.7 |
| 20260506013916 | 10 | 208 | 3.2 | 11.3 | 0.00 | 0.61 | 0.00 | 93 | 1007.8 |
| 20260506013416 | 10 | 230 | 6.4 | 20.9 | 0.00 | 0.61 | 0.00 | 92 | 1008.0 |
| 20260506012916 | 10 | 254 | 9.7 | 14.5 | 0.00 | 0.61 | 0.00 | 92 | 1008.1 |
| 20260506012416 | 10 | 258 | 14.5 | 14.5 | 0.00 | 0.61 | 0.00 | 92 | 1008.2 |
| 20260506011916 | 10 | 250 | 12.9 | 14.5 | 0.00 | 0.61 | 0.00 | 91 | 1008.3 |
| 20260506011416 | 10 | 265 | 8.0 | 12.9 | 0.00 | 0.61 | 0.00 | 90 | 1008.4 |
| 20260506010916 | 10 | 170 | 0.0 | 19.3 | 0.00 | 0.61 | 0.00 | 90 | 1008.4 |
| 20260506010416 | 10 | 222 | 3.2 | 17.7 | 0.00 | 0.61 | 0.00 | 89 | 1008.4 |
| 20260506005916 | 10 | 251 | 8.0 | 11.3 | 0.00 | 0.61 | 0.00 | 88 | 1008.5 |
| 20260506005417 | 10 | 215 | 6.4 | 9.7 | 0.00 | 0.61 | 0.00 | 87 | 1008.5 |
| 20260506004917 | 10 | 213 | 0.0 | 9.7 | 0.00 | 0.61 | 0.00 | 86 | 1008.5 |
| 20260506004417 | 10 | 274 | 4.8 | 11.3 | 0.00 | 0.61 | 0.00 | 86 | 1008.4 |
| 20260506003916 | 10 | 258 | 6.4 | 9.7 | 0.00 | 0.61 | 0.00 | 85 | 1008.5 |
| 20260506003417 | 10 | 253 | 6.4 | 11.3 | 0.00 | 0.61 | 0.00 | 85 | 1008.4 |
| 20260506002917 | 10 | 289 | 1.6 | 12.9 | 0.00 | 0.61 | 0.00 | 85 | 1008.4 |
| 20260506002417 | 10 | 227 | 3.2 | 14.5 | 0.00 | 0.61 | 0.00 | 85 | 1008.3 |
| 20260506001917 | 10 | 251 | 12.9 | 12.9 | 0.00 | 0.61 | 0.00 | 85 | 1008.3 |
| 20260506001417 | 10 | 258 | 9.7 | 12.9 | 0.00 | 0.61 | 0.00 | 85 | 1008.3 |
| 20260506000917 | 10 | 260 | 8.0 | 11.3 | 0.00 | 0.61 | 0.00 | 84 | 1008.4 |
| 20260506000417 | 10 | 251 | 4.8 | 11.3 | 0.00 | 0.61 | 0.00 | 84 | 1008.5 |
| 20260505235917 | 11 | 236 | 6.4 | 19.3 | 0.00 | 0.61 | 0.00 | 83 | 1008.5 |
| 20260505235417 | 11 | 285 | 3.2 | 12.9 | 0.00 | 0.61 | 0.00 | 81 | 1008.6 |
| 20260505234917 | 11 | 248 | 8.0 | 11.3 | 0.00 | 0.61 | 0.00 | 81 | 1008.7 |
| 20260505234417 | 11 | 267 | 8.0 | 14.5 | 0.00 | 0.61 | 0.00 | 81 | 1008.7 |
| 20260505233917 | 11 | 232 | 6.4 | 12.9 | 0.00 | 0.61 | 0.00 | 81 | 1008.7 |
| 20260505233417 | 11 | 275 | 4.8 | 14.5 | 0.00 | 0.61 | 0.00 | 82 | 1008.7 |
| 20260505232917 | 10 | 251 | 4.8 | 11.3 | 0.00 | 0.61 | 0.00 | 82 | 1008.8 |
| 20260505232417 | 11 | 248 | 9.7 | 11.3 | 0.00 | 0.61 | 0.00 | 82 | 1008.8 |
| 20260505231917 | 11 | 279 | 8.0 | 16.1 | 0.00 | 0.61 | 0.00 | 81 | 1008.8 |
| 20260505231417 | 11 | 210 | 4.8 | 14.5 | 0.00 | 0.61 | 0.00 | 81 | 1008.9 |
| 20260505230917 | 10 | 281 | 6.4 | 9.7 | 0.00 | 0.61 | 0.00 | 81 | 1008.8 |
| 20260505230417 | 10 | 233 | 3.2 | 14.5 | 0.00 | 0.61 | 0.00 | 82 | 1008.9 |
| 20260505225917 | 10 | 240 | 8.0 | 12.9 | 0.00 | 0.61 | 0.00 | 83 | 1008.8 |
| 20260505225417 | 10 | 187 | 4.8 | 9.7 | 0.00 | 0.61 | 0.00 | 82 | 1008.9 |
| 20260505224917 | 10 | 250 | 8.0 | 14.5 | 0.00 | 0.61 | 0.00 | 82 | 1008.8 |
| 20260505224417 | 11 | 174 | 4.8 | 9.7 | 0.00 | 0.61 | 0.00 | 81 | 1008.9 |
| 20260505223917 | 11 | 220 | 4.8 | 14.5 | 0.00 | 0.61 | 0.00 | 81 | 1008.9 |
| 20260505223417 | 11 | 226 | 11.3 | 14.5 | 0.00 | 0.61 | 0.00 | 81 | 1008.9 |
| 20260505222917 | 11 | 212 | 6.4 | 16.1 | 0.00 | 0.61 | 0.00 | 81 | 1008.9 |
| 20260505222417 | 11 | 254 | 14.5 | 14.5 | 0.00 | 0.61 | 0.00 | 80 | 1008.9 |
| 20260505221917 | 11 | 274 | 9.7 | 12.9 | 0.00 | 0.61 | 0.00 | 79 | 1008.9 |
| 20260505221421 | 11 | 271 | 9.7 | 16.1 | 0.00 | 0.61 | 0.00 | 78 | 1009.0 |
| 20260505221417 | 11 | 271 | 9.7 | 16.1 | 0.00 | 0.61 | 0.00 | 78 | 1009.0 |
| 20260505220917 | 11 | 260 | 12.9 | 16.1 | 0.00 | 0.61 | 0.00 | 78 | 1008.9 |
| 20260505220417 | 11 | 253 | 11.3 | 17.7 | 0.00 | 0.61 | 0.00 | 78 | 1008.8 |
| 20260505215920 | 11 | 243 | 11.3 | 20.9 | 0.00 | 0.61 | 0.00 | 79 | 1008.8 |
| 20260505215917 | 11 | 243 | 11.3 | 20.9 | 0.00 | 0.61 | 0.00 | 79 | 1008.8 |
| 20260505215417 | 11 | 236 | 8.0 | 9.7 | 0.00 | 0.61 | 0.61 | 81 | 1008.9 |
| 20260505214917 | 11 | 203 | 4.8 | 11.3 | 0.00 | 0.61 | 0.61 | 80 | 1008.8 |
| 20260505214422 | 11 | 275 | 1.6 | 6.4 | 0.00 | 0.61 | 0.61 | 80 | 1008.9 |
| 20260505214417 | 11 | 275 | 1.6 | 6.4 | 0.00 | 0.61 | 0.61 | 80 | 1008.9 |
| 20260505213917 | 11 | 220 | 6.4 | 14.5 | 0.00 | 0.61 | 0.61 | 80 | 1008.8 |
| 20260505213417 | 11 | 239 | 9.7 | 14.5 | 0.00 | 0.61 | 0.61 | 82 | 1008.8 |
| 20260505212920 | 10 | 223 | 0.0 | 4.8 | 0.00 | 0.61 | 0.61 | 82 | 1008.8 |
| 20260505212917 | 10 | 223 | 0.0 | 4.8 | 0.00 | 0.61 | 0.61 | 82 | 1008.8 |
| 20260505212417 | 11 | 296 | 1.6 | 1.6 | 0.00 | 0.61 | 0.61 | 81 | 1008.8 |
| 20260505211917 | 11 | 254 | 0.0 | 6.4 | 0.00 | 0.61 | 0.61 | 81 | 1008.9 |
| 20260505211417 | 11 | 243 | 4.8 | 8.0 | 0.00 | 0.61 | 0.61 | 81 | 1009.0 |
| 20260505210917 | 11 | 237 | 3.2 | 16.1 | 0.00 | 0.61 | 0.61 | 81 | 1008.9 |
| 20260505210417 | 11 | 196 | 4.8 | 14.5 | 0.00 | 0.61 | 0.61 | 82 | 1008.9 |
| 20260505205920 | 11 | 262 | 12.9 | 14.5 | 0.00 | 0.61 | 0.61 | 82 | 1008.9 |
| 20260505205917 | 11 | 262 | 12.9 | 14.5 | 0.00 | 0.61 | 0.61 | 82 | 1008.9 |
| 20260505205417 | 11 | 220 | 3.2 | 6.4 | 0.00 | 0.61 | 0.61 | 81 | 1008.9 |
| 20260505204917 | 11 | 185 | 4.8 | 14.5 | 0.00 | 0.61 | 0.61 | 81 | 1008.9 |
| 20260505204421 | 11 | 203 | 4.8 | 12.9 | 0.00 | 0.61 | 0.61 | 80 | 1008.9 |
| 20260505204417 | 11 | 203 | 4.8 | 12.9 | 0.00 | 0.61 | 0.61 | 80 | 1008.9 |
| 20260505203917 | 11 | 233 | 11.3 | 19.3 | 0.00 | 0.61 | 0.61 | 80 | 1008.8 |
| 20260505203417 | 11 | 210 | 8.0 | 12.9 | 0.00 | 0.61 | 0.61 | 81 | 1008.8 |
| 20260505202917 | 11 | 222 | 6.4 | 14.5 | 0.00 | 0.61 | 0.61 | 81 | 1008.7 |
| 20260505202417 | 11 | 268 | 9.7 | 16.1 | 0.00 | 0.61 | 0.61 | 80 | 1008.8 |
| 20260505201917 | 11 | 254 | 9.7 | 19.3 | 0.00 | 0.61 | 0.61 | 82 | 1008.8 |
| 20260505201420 | 11 | 275 | 11.3 | 12.9 | 0.00 | 0.61 | 0.61 | 84 | 1008.8 |
| 20260505201417 | 11 | 275 | 11.3 | 12.9 | 0.00 | 0.61 | 0.61 | 84 | 1008.8 |
| 20260505200917 | 10 | 296 | 3.2 | 9.7 | 0.00 | 0.61 | 0.61 | 86 | 1008.8 |
| 20260505200417 | 10 | 215 | 0.0 | 8.0 | 0.00 | 0.61 | 0.61 | 87 | 1008.8 |
| 20260505195921 | 10 | 209 | 0.0 | 1.6 | 0.00 | 0.61 | 0.61 | 86 | 1008.7 |
| 20260505195917 | 10 | 209 | 0.0 | 1.6 | 0.00 | 0.61 | 0.61 | 86 | 1008.7 |